Time,TemperatureF,DewpointF,PressureIn,WindDirection,WindDirectionDegrees,WindSpeedMPH,WindSpeedGustMPH,Humidity,HourlyPrecipIn,Conditions,Clouds,dailyrainin,SolarRadiationWatts/m^2,SoftwareType,DateUTC
2013-07-07 00:00:00,56.1,50.3,29.79,NW,312,0.0,4.0,81,0.00,,,0.00,0,Wunderground v.1.15,2013-07-07 07:00:00,
2013-07-07 00:06:00,55.8,50.1,29.79,NW,312,0.0,4.0,81,0.00,,,0.00,0,Wunderground v.1.15,2013-07-07 07:06:00,
2013-07-07 00:11:00,55.6,50.2,29.79,NW,312,0.0,4.0,82,0.00,,,0.00,0,Wunderground v.1.15,2013-07-07 07:11:00,
2013-07-07 00:16:00,55.4,50.0,29.79,NW,312,0.0,4.0,82,0.00,,,0.00,0,Wunderground v.1.15,2013-07-07 07:16:00,
2013-07-07 00:22:00,55.2,50.1,29.79,NW,312,0.0,4.0,83,0.00,,,0.00,0,Wunderground v.1.15,2013-07-07 07:22:00,
2013-07-07 00:27:00,55.0,49.9,29.79,NW,312,0.0,4.0,83,0.00,,,0.00,0,Wunderground v.1.15,2013-07-07 07:27:00,
2013-07-07 00:32:00,54.8,49.7,29.79,NW,312,0.0,4.0,83,0.00,,,0.00,0,Wunderground v.1.15,2013-07-07 07:32:00,
2013-07-07 00:37:00,54.6,49.9,29.79,NW,312,0.0,4.0,84,0.00,,,0.00,0,Wunderground v.1.15,2013-07-07 07:37:00,
2013-07-07 00:42:00,54.4,49.7,29.80,NW,312,1.0,4.0,84,0.00,,,0.00,0,Wunderground v.1.15,2013-07-07 07:42:00,
2013-07-07 00:47:00,54.2,49.8,29.79,NW,312,0.0,4.0,85,0.00,,,0.00,0,Wunderground v.1.15,2013-07-07 07:47:00,
2013-07-07 00:53:00,54.1,49.7,29.79,NW,312,0.0,4.0,85,0.00,,,0.00,0,Wunderground v.1.15,2013-07-07 07:53:00,
2013-07-07 00:59:00,54.0,49.9,29.79,NW,312,0.0,4.0,86,0.00,,,0.00,0,Wunderground v.1.15,2013-07-07 07:59:00,
2013-07-07 01:04:00,53.9,49.8,29.79,NW,312,0.0,4.0,86,0.00,,,0.00,0,Wunderground v.1.15,2013-07-07 08:04:00,
2013-07-07 01:09:00,53.8,49.7,29.79,NW,312,0.0,4.0,86,0.00,,,0.00,0,Wunderground v.1.15,2013-07-07 08:09:00,
2013-07-07 01:15:00,53.7,49.6,29.80,NW,312,1.0,4.0,86,0.00,,,0.00,0,Wunderground v.1.15,2013-07-07 08:15:00,
2013-07-07 01:21:00,53.5,49.7,29.79,NW,312,0.0,4.0,87,0.00,,,0.00,0,Wunderground v.1.15,2013-07-07 08:21:00,
2013-07-07 01:26:00,53.4,49.6,29.80,NW,312,0.0,4.0,87,0.00,,,0.00,0,Wunderground v.1.15,2013-07-07 08:26:00,
2013-07-07 01:31:00,53.3,49.5,29.80,NW,312,0.0,4.0,87,0.00,,,0.00,0,Wunderground v.1.15,2013-07-07 08:31:00,
2013-07-07 01:37:00,53.2,49.7,29.80,NW,312,0.0,4.0,88,0.00,,,0.00,0,Wunderground v.1.15,2013-07-07 08:37:00,
2013-07-07 01:42:00,53.1,49.6,29.80,NW,312,0.0,4.0,88,0.00,,,0.00,0,Wunderground v.1.15,2013-07-07 08:42:00,
2013-07-07 01:48:00,53.0,49.5,29.80,NW,312,0.0,4.0,88,0.00,,,0.00,0,Wunderground v.1.15,2013-07-07 08:48:00,
2013-07-07 01:54:00,52.9,49.4,29.80,NW,311,0.0,4.0,88,0.00,,,0.00,0,Wunderground v.1.15,2013-07-07 08:54:00,
2013-07-07 02:00:00,52.8,49.6,29.80,NW,311,1.0,1.0,89,0.00,,,0.00,0,Wunderground v.1.15,2013-07-07 09:00:00,
2013-07-07 02:06:00,52.7,49.5,29.80,NW,311,0.0,4.0,89,0.00,,,0.00,0,Wunderground v.1.15,2013-07-07 09:06:00,
2013-07-07 02:12:00,52.7,49.5,29.80,NW,311,1.0,4.0,89,0.00,,,0.00,0,Wunderground v.1.15,2013-07-07 09:12:00,
2013-07-07 02:18:00,52.6,49.4,29.80,NW,310,1.0,4.0,89,0.00,,,0.00,0,Wunderground v.1.15,2013-07-07 09:18:00,
2013-07-07 02:24:00,52.6,49.8,29.80,NW,310,0.0,4.0,90,0.00,,,0.00,0,Wunderground v.1.15,2013-07-07 09:24:00,
2013-07-07 02:29:00,52.6,49.8,29.80,NW,310,0.0,4.0,90,0.00,,,0.00,0,Wunderground v.1.15,2013-07-07 09:29:00,
2013-07-07 02:35:00,52.6,49.8,29.80,NW,310,0.0,4.0,90,0.00,,,0.00,0,Wunderground v.1.15,2013-07-07 09:35:00,
2013-07-07 02:41:00,52.7,49.8,29.80,NW,310,0.0,4.0,90,0.00,,,0.00,0,Wunderground v.1.15,2013-07-07 09:41:00,
2013-07-07 02:46:00,52.7,49.8,29.79,NW,310,0.0,4.0,90,0.00,,,0.00,0,Wunderground v.1.15,2013-07-07 09:46:00,
2013-07-07 02:51:00,52.8,49.9,29.80,NW,310,0.0,4.0,90,0.00,,,0.00,0,Wunderground v.1.15,2013-07-07 09:51:00,
2013-07-07 02:56:00,52.8,49.9,29.80,NW,310,0.0,4.0,90,0.00,,,0.00,0,Wunderground v.1.15,2013-07-07 09:56:00,
2013-07-07 03:02:00,52.8,50.2,29.80,NW,310,0.0,4.0,91,0.00,,,0.00,0,Wunderground v.1.15,2013-07-07 10:02:00,
2013-07-07 03:07:00,52.8,50.2,29.80,NW,310,0.0,4.0,91,0.00,,,0.00,0,Wunderground v.1.15,2013-07-07 10:07:00,
2013-07-07 03:12:00,52.9,50.3,29.80,NW,310,0.0,4.0,91,0.00,,,0.00,0,Wunderground v.1.15,2013-07-07 10:12:00,
2013-07-07 03:18:00,52.9,50.3,29.80,NW,312,1.0,5.0,91,0.00,,,0.00,0,Wunderground v.1.15,2013-07-07 10:18:00,
2013-07-07 03:24:00,52.9,50.3,29.80,NW,313,2.0,4.0,91,0.00,,,0.00,0,Wunderground v.1.15,2013-07-07 10:24:00,
2013-07-07 03:29:00,52.9,50.3,29.80,NW,314,2.0,4.0,91,0.00,,,0.00,0,Wunderground v.1.15,2013-07-07 10:29:00,
2013-07-07 03:35:00,52.9,50.3,29.80,NW,314,0.0,4.0,91,0.00,,,0.00,0,Wunderground v.1.15,2013-07-07 10:35:00,
2013-07-07 03:41:00,53.0,50.4,29.80,NW,315,1.0,4.0,91,0.00,,,0.00,0,Wunderground v.1.15,2013-07-07 10:41:00,
2013-07-07 03:46:00,53.0,50.4,29.80,NW,315,1.0,4.0,91,0.00,,,0.00,0,Wunderground v.1.15,2013-07-07 10:46:00,
2013-07-07 03:51:00,53.0,50.4,29.80,NW,315,1.0,4.0,91,0.00,,,0.00,0,Wunderground v.1.15,2013-07-07 10:51:00,
2013-07-07 03:57:00,52.9,50.3,29.80,NW,315,1.0,4.0,91,0.00,,,0.00,0,Wunderground v.1.15,2013-07-07 10:57:00,
2013-07-07 04:03:00,53.0,50.4,29.80,NW,313,1.0,4.0,91,0.00,,,0.00,0,Wunderground v.1.15,2013-07-07 11:03:00,
2013-07-07 04:09:00,52.9,50.3,29.80,NW,315,1.0,4.0,91,0.00,,,0.00,0,Wunderground v.1.15,2013-07-07 11:09:00,
2013-07-07 04:15:00,52.8,50.2,29.80,NW,317,1.0,4.0,91,0.00,,,0.00,0,Wunderground v.1.15,2013-07-07 11:15:00,
2013-07-07 04:21:00,52.8,50.2,29.80,NW,317,0.0,4.0,91,0.00,,,0.00,0,Wunderground v.1.15,2013-07-07 11:21:00,
2013-07-07 04:26:00,52.8,50.2,29.80,NW,315,0.0,4.0,91,0.00,,,0.00,0,Wunderground v.1.15,2013-07-07 11:26:00,
2013-07-07 04:31:00,52.8,50.2,29.80,NW,315,0.0,4.0,91,0.00,,,0.00,0,Wunderground v.1.15,2013-07-07 11:31:00,
2013-07-07 04:37:00,52.8,50.2,29.80,NW,315,0.0,4.0,91,0.00,,,0.00,0,Wunderground v.1.15,2013-07-07 11:37:00,
2013-07-07 04:43:00,52.8,50.5,29.79,NW,308,0.0,4.0,92,0.00,,,0.00,0,Wunderground v.1.15,2013-07-07 11:43:00,
2013-07-07 04:49:00,52.7,50.4,29.80,NW,304,1.0,4.0,92,0.00,,,0.00,0,Wunderground v.1.15,2013-07-07 11:49:00,
2013-07-07 04:55:00,52.6,50.3,29.81,NW,305,1.0,4.0,92,0.00,,,0.00,0,Wunderground v.1.15,2013-07-07 11:55:00,
2013-07-07 05:01:00,52.5,49.9,29.81,NW,311,1.0,4.0,91,0.00,,,0.00,0,Wunderground v.1.15,2013-07-07 12:01:00,
2013-07-07 05:07:00,52.5,50.2,29.81,NW,311,1.0,4.0,92,0.00,,,0.00,0,Wunderground v.1.15,2013-07-07 12:07:00,
2013-07-07 05:13:00,52.5,50.2,29.81,NW,311,0.0,4.0,92,0.00,,,0.00,0,Wunderground v.1.15,2013-07-07 12:13:00,
2013-07-07 05:19:00,52.5,50.2,29.81,NW,311,0.0,4.0,92,0.00,,,0.00,0,Wunderground v.1.15,2013-07-07 12:19:00,
2013-07-07 05:24:00,52.6,50.3,29.81,NW,311,0.0,4.0,92,0.00,,,0.00,0,Wunderground v.1.15,2013-07-07 12:24:00,
2013-07-07 05:30:00,52.6,50.3,29.81,NW,311,0.0,4.0,92,0.00,,,0.00,0,Wunderground v.1.15,2013-07-07 12:30:00,
2013-07-07 05:36:00,52.5,50.2,29.81,NW,310,1.0,4.0,92,0.00,,,0.00,0,Wunderground v.1.15,2013-07-07 12:36:00,
2013-07-07 05:42:00,52.5,50.2,29.81,WNW,296,1.0,4.0,92,0.00,,,0.00,0,Wunderground v.1.15,2013-07-07 12:42:00,
2013-07-07 05:47:00,52.4,50.1,29.81,WNW,300,1.0,4.0,92,0.00,,,0.00,0,Wunderground v.1.15,2013-07-07 12:47:00,
2013-07-07 05:53:00,52.4,50.1,29.81,WNW,300,1.0,4.0,92,0.00,,,0.00,0,Wunderground v.1.15,2013-07-07 12:53:00,
2013-07-07 05:58:00,52.4,50.1,29.81,WNW,296,0.0,4.0,92,0.00,,,0.00,0,Wunderground v.1.15,2013-07-07 12:58:00,
2013-07-07 06:03:00,52.3,50.0,29.81,WNW,296,1.0,4.0,92,0.00,,,0.00,0,Wunderground v.1.15,2013-07-07 13:03:00,
2013-07-07 06:08:00,52.3,50.0,29.81,WNW,292,1.0,4.0,92,0.00,,,0.00,0,Wunderground v.1.15,2013-07-07 13:08:00,
2013-07-07 06:14:00,52.3,50.0,29.82,WNW,292,1.0,4.0,92,0.00,,,0.00,5,Wunderground v.1.15,2013-07-07 13:14:00,
2013-07-07 06:19:00,52.3,50.0,29.82,WNW,292,0.0,4.0,92,0.00,,,0.00,7,Wunderground v.1.15,2013-07-07 13:19:00,
2013-07-07 06:24:00,52.2,49.9,29.82,WNW,294,0.0,4.0,92,0.00,,,0.00,11,Wunderground v.1.15,2013-07-07 13:24:00,
2013-07-07 06:29:00,52.2,49.9,29.82,WNW,293,0.0,4.0,92,0.00,,,0.00,12,Wunderground v.1.15,2013-07-07 13:29:00,
2013-07-07 06:35:00,52.2,49.9,29.83,WNW,294,1.0,4.0,92,0.00,,,0.00,14,Wunderground v.1.15,2013-07-07 13:35:00,
2013-07-07 06:40:00,52.2,49.9,29.83,WNW,294,1.0,1.0,92,0.00,,,0.00,18,Wunderground v.1.15,2013-07-07 13:40:00,
2013-07-07 06:45:00,52.2,49.9,29.82,WNW,294,0.0,4.0,92,0.00,,,0.00,21,Wunderground v.1.15,2013-07-07 13:45:00,
2013-07-07 06:51:00,52.2,49.9,29.82,WNW,294,0.0,4.0,92,0.00,,,0.00,28,Wunderground v.1.15,2013-07-07 13:51:00,
2013-07-07 06:56:00,52.2,49.9,29.83,WNW,294,0.0,4.0,92,0.00,,,0.00,30,Wunderground v.1.15,2013-07-07 13:56:00,
2013-07-07 07:02:00,52.3,50.0,29.83,WNW,294,0.0,4.0,92,0.00,,,0.00,35,Wunderground v.1.15,2013-07-07 14:02:00,
2013-07-07 07:07:00,52.3,50.3,29.83,WNW,294,0.0,4.0,93,0.00,,,0.00,39,Wunderground v.1.15,2013-07-07 14:07:00,
2013-07-07 07:13:00,52.4,50.4,29.83,WNW,294,0.0,4.0,93,0.00,,,0.00,39,Wunderground v.1.15,2013-07-07 14:13:00,
2013-07-07 07:19:00,52.5,50.5,29.83,WNW,294,0.0,4.0,93,0.00,,,0.00,44,Wunderground v.1.15,2013-07-07 14:19:00,
2013-07-07 07:24:00,52.6,50.6,29.83,WNW,294,1.0,4.0,93,0.00,,,0.00,46,Wunderground v.1.15,2013-07-07 14:24:00,
2013-07-07 07:30:00,52.6,50.6,29.83,WNW,295,1.0,4.0,93,0.00,,,0.00,54,Wunderground v.1.15,2013-07-07 14:30:00,
2013-07-07 07:35:00,52.5,50.5,29.84,WNW,295,1.0,4.0,93,0.00,,,0.00,60,Wunderground v.1.15,2013-07-07 14:35:00,
2013-07-07 07:40:00,52.6,50.6,29.84,WNW,295,0.0,4.0,93,0.00,,,0.00,67,Wunderground v.1.15,2013-07-07 14:40:00,
2013-07-07 07:46:00,52.6,50.6,29.84,WNW,295,0.0,4.0,93,0.00,,,0.00,76,Wunderground v.1.15,2013-07-07 14:46:00,
2013-07-07 07:52:00,52.7,50.7,29.84,WNW,295,1.0,4.0,93,0.00,,,0.00,81,Wunderground v.1.15,2013-07-07 14:52:00,
2013-07-07 07:57:00,52.8,50.8,29.84,WNW,296,0.0,4.0,93,0.00,,,0.00,88,Wunderground v.1.15,2013-07-07 14:57:00,
2013-07-07 08:03:00,53.0,51.0,29.84,WNW,296,0.0,4.0,93,0.00,,,0.00,93,Wunderground v.1.15,2013-07-07 15:03:00,
2013-07-07 08:08:00,53.0,51.0,29.84,WNW,296,0.0,4.0,93,0.00,,,0.00,104,Wunderground v.1.15,2013-07-07 15:08:00,
2013-07-07 08:14:00,53.0,50.7,29.84,WNW,297,1.0,4.0,92,0.00,,,0.00,134,Wunderground v.1.15,2013-07-07 15:14:00,
2013-07-07 08:19:00,53.0,51.0,29.84,WNW,297,1.0,4.0,93,0.00,,,0.00,148,Wunderground v.1.15,2013-07-07 15:19:00,
2013-07-07 08:25:00,53.0,51.0,29.84,WNW,297,1.0,4.0,93,0.00,,,0.00,163,Wunderground v.1.15,2013-07-07 15:25:00,
2013-07-07 08:31:00,53.1,51.1,29.85,WNW,298,1.0,4.0,93,0.00,,,0.00,160,Wunderground v.1.15,2013-07-07 15:31:00,
2013-07-07 08:37:00,53.3,51.3,29.85,WNW,296,1.0,5.0,93,0.00,,,0.00,149,Wunderground v.1.15,2013-07-07 15:37:00,
2013-07-07 08:43:00,53.6,51.3,29.85,WNW,297,1.0,4.0,92,0.00,,,0.00,148,Wunderground v.1.15,2013-07-07 15:43:00,
2013-07-07 08:49:00,53.7,51.4,29.85,WNW,296,1.0,4.0,92,0.00,,,0.00,190,Wunderground v.1.15,2013-07-07 15:49:00,
2013-07-07 08:55:00,53.9,51.6,29.85,WNW,296,1.0,4.0,92,0.00,,,0.00,204,Wunderground v.1.15,2013-07-07 15:55:00,
2013-07-07 09:01:00,54.2,51.9,29.85,WNW,298,1.0,4.0,92,0.00,,,0.00,220,Wunderground v.1.15,2013-07-07 16:01:00,
2013-07-07 09:06:00,54.5,52.2,29.85,WNW,297,1.0,4.0,92,0.00,,,0.00,237,Wunderground v.1.15,2013-07-07 16:06:00,
2013-07-07 09:12:00,54.9,52.6,29.85,WNW,297,0.0,4.0,92,0.00,,,0.00,255,Wunderground v.1.15,2013-07-07 16:12:00,
2013-07-07 09:17:00,55.2,52.6,29.85,WNW,297,0.0,4.0,91,0.00,,,0.00,294,Wunderground v.1.15,2013-07-07 16:17:00,
2013-07-07 09:22:00,55.4,52.8,29.85,WNW,299,0.0,4.0,91,0.00,,,0.00,334,Wunderground v.1.15,2013-07-07 16:22:00,
2013-07-07 09:28:00,55.8,52.9,29.85,WNW,299,1.0,4.0,90,0.00,,,0.00,404,Wunderground v.1.15,2013-07-07 16:28:00,
2013-07-07 09:33:00,56.0,52.8,29.85,WNW,299,0.0,4.0,89,0.00,,,0.00,445,Wunderground v.1.15,2013-07-07 16:33:00,
2013-07-07 09:38:00,56.4,53.2,29.85,WNW,290,0.0,4.0,89,0.00,,,0.00,461,Wunderground v.1.15,2013-07-07 16:38:00,
2013-07-07 09:44:00,57.2,53.7,29.85,WNW,297,1.0,4.0,88,0.00,,,0.00,403,Wunderground v.1.15,2013-07-07 16:44:00,
2013-07-07 09:50:00,57.5,53.3,29.85,WNW,298,1.0,4.0,86,0.00,,,0.00,302,Wunderground v.1.15,2013-07-07 16:50:00,
2013-07-07 09:55:00,58.1,53.6,29.85,WNW,298,1.0,4.0,85,0.00,,,0.00,740,Wunderground v.1.15,2013-07-07 16:55:00,
2013-07-07 10:00:00,58.7,53.9,29.85,WNW,299,1.0,1.0,84,0.00,,,0.00,563,Wunderground v.1.15,2013-07-07 17:00:00,
2013-07-07 10:06:00,59.6,54.1,29.84,NW,312,1.0,4.0,82,0.00,,,0.00,707,Wunderground v.1.15,2013-07-07 17:06:00,
2013-07-07 10:12:00,60.5,54.6,29.84,West,275,1.0,4.0,81,0.00,,,0.00,721,Wunderground v.1.15,2013-07-07 17:12:00,
2013-07-07 10:18:00,61.4,54.8,29.84,West,273,1.0,4.0,79,0.00,,,0.00,729,Wunderground v.1.15,2013-07-07 17:18:00,
2013-07-07 10:23:00,61.8,54.9,29.84,NW,325,1.0,4.0,78,0.00,,,0.00,749,Wunderground v.1.15,2013-07-07 17:23:00,
2013-07-07 10:28:00,62.0,54.7,29.84,North,350,2.0,4.0,77,0.00,,,0.00,759,Wunderground v.1.15,2013-07-07 17:28:00,
2013-07-07 10:34:00,62.9,55.2,29.84,West,259,1.0,4.0,76,0.00,,,0.00,773,Wunderground v.1.15,2013-07-07 17:34:00,
2013-07-07 10:40:00,63.6,55.2,29.84,WNW,295,1.0,4.0,74,0.00,,,0.00,788,Wunderground v.1.15,2013-07-07 17:40:00,
2013-07-07 10:46:00,64.0,55.2,29.84,NW,325,1.0,4.0,73,0.00,,,0.00,802,Wunderground v.1.15,2013-07-07 17:46:00,
2013-07-07 10:52:00,64.6,55.4,29.84,West,281,1.0,4.0,72,0.00,,,0.00,817,Wunderground v.1.15,2013-07-07 17:52:00,
2013-07-07 10:57:00,65.7,56.0,29.84,WNW,297,1.0,4.0,71,0.00,,,0.00,824,Wunderground v.1.15,2013-07-07 17:57:00,
2013-07-07 11:03:00,66.2,55.7,29.84,NW,304,1.0,4.0,69,0.00,,,0.00,838,Wunderground v.1.15,2013-07-07 18:03:00,
2013-07-07 11:09:00,66.7,56.2,29.84,NW,311,1.0,4.0,69,0.00,,,0.00,849,Wunderground v.1.15,2013-07-07 18:09:00,
2013-07-07 11:15:00,66.9,56.0,29.84,WNW,300,1.0,4.0,68,0.00,,,0.00,861,Wunderground v.1.15,2013-07-07 18:15:00,
2013-07-07 11:21:00,67.4,56.1,29.84,WNW,301,1.0,4.0,67,0.00,,,0.00,872,Wunderground v.1.15,2013-07-07 18:21:00,
2013-07-07 11:26:00,68.2,56.8,29.84,SSE,148,1.0,4.0,67,0.00,,,0.00,882,Wunderground v.1.15,2013-07-07 18:26:00,
2013-07-07 11:31:00,69.0,56.7,29.84,SE,140,1.0,4.0,65,0.00,,,0.00,889,Wunderground v.1.15,2013-07-07 18:31:00,
2013-07-07 11:36:00,70.3,57.1,29.84,SE,138,1.0,4.0,63,0.00,,,0.00,900,Wunderground v.1.15,2013-07-07 18:36:00,
2013-07-07 11:42:00,72.0,57.8,29.83,SE,140,0.0,4.0,61,0.00,,,0.00,909,Wunderground v.1.15,2013-07-07 18:42:00,
2013-07-07 11:48:00,73.5,58.3,29.83,SSW,194,0.0,4.0,59,0.00,,,0.00,919,Wunderground v.1.15,2013-07-07 18:48:00,
2013-07-07 11:53:00,74.2,58.0,29.83,South,186,1.0,4.0,57,0.00,,,0.00,925,Wunderground v.1.15,2013-07-07 18:53:00,
2013-07-07 11:59:00,74.3,57.6,29.83,SSE,162,1.0,4.0,56,0.00,,,0.00,933,Wunderground v.1.15,2013-07-07 18:59:00,
2013-07-07 12:04:00,74.7,58.0,29.83,SSE,160,1.0,4.0,56,0.00,,,0.00,939,Wunderground v.1.15,2013-07-07 19:04:00,
2013-07-07 12:09:00,75.3,58.0,29.83,ESE,121,1.0,4.0,55,0.00,,,0.00,944,Wunderground v.1.15,2013-07-07 19:09:00,
2013-07-07 12:15:00,75.4,58.1,29.83,East,99,1.0,4.0,55,0.00,,,0.00,949,Wunderground v.1.15,2013-07-07 19:15:00,
2013-07-07 12:21:00,76.1,58.8,29.82,SSE,156,1.0,4.0,55,0.00,,,0.00,958,Wunderground v.1.15,2013-07-07 19:21:00,
2013-07-07 12:27:00,76.8,58.4,29.82,SSE,156,1.0,4.0,53,0.00,,,0.00,960,Wunderground v.1.15,2013-07-07 19:27:00,
2013-07-07 12:33:00,77.7,58.7,29.82,SSE,155,1.0,4.0,52,0.00,,,0.00,967,Wunderground v.1.15,2013-07-07 19:33:00,
2013-07-07 12:38:00,77.8,58.8,29.82,SSE,151,1.0,4.0,52,0.00,,,0.00,970,Wunderground v.1.15,2013-07-07 19:38:00,
2013-07-07 12:44:00,79.0,59.3,29.82,SSE,149,1.0,4.0,51,0.00,,,0.00,974,Wunderground v.1.15,2013-07-07 19:44:00,
2013-07-07 12:49:00,79.6,59.9,29.82,SE,146,1.0,4.0,51,0.00,,,0.00,977,Wunderground v.1.15,2013-07-07 19:49:00,
2013-07-07 12:54:00,80.3,60.0,29.82,SSE,153,1.0,4.0,50,0.00,,,0.00,981,Wunderground v.1.15,2013-07-07 19:54:00,
2013-07-07 12:59:00,81.0,60.0,29.82,West,261,1.0,4.0,49,0.00,,,0.00,981,Wunderground v.1.15,2013-07-07 19:59:00,
2013-07-07 13:04:00,81.0,60.0,29.82,NW,315,1.0,4.0,49,0.00,,,0.00,977,Wunderground v.1.15,2013-07-07 20:04:00,
2013-07-07 13:10:00,80.7,59.8,29.82,NW,311,2.0,2.0,49,0.00,,,0.00,979,Wunderground v.1.15,2013-07-07 20:10:00,
2013-07-07 13:15:00,80.3,60.0,29.81,NNW,328,3.0,5.0,50,0.00,,,0.00,981,Wunderground v.1.15,2013-07-07 20:15:00,
2013-07-07 13:21:00,80.6,60.2,29.81,NW,325,3.0,4.0,50,0.00,,,0.00,976,Wunderground v.1.15,2013-07-07 20:21:00,
2013-07-07 13:27:00,80.6,60.2,29.81,NNW,330,3.0,6.0,50,0.00,,,0.00,976,Wunderground v.1.15,2013-07-07 20:27:00,
2013-07-07 13:33:00,80.7,59.8,29.81,NW,311,3.0,4.0,49,0.00,,,0.00,979,Wunderground v.1.15,2013-07-07 20:33:00,
2013-07-07 13:39:00,81.2,60.2,29.81,NW,319,2.0,4.0,49,0.00,,,0.00,976,Wunderground v.1.15,2013-07-07 20:39:00,
2013-07-07 13:44:00,82.0,59.8,29.81,NNW,332,1.0,4.0,47,0.00,,,0.00,972,Wunderground v.1.15,2013-07-07 20:44:00,
2013-07-07 13:49:00,83.1,60.2,29.80,NW,312,2.0,4.0,46,0.00,,,0.00,972,Wunderground v.1.15,2013-07-07 20:49:00,
2013-07-07 13:55:00,83.8,58.9,29.81,WNW,283,2.0,4.0,43,0.00,,,0.00,976,Wunderground v.1.15,2013-07-07 20:55:00,
2013-07-07 14:01:00,83.8,59.6,29.81,SW,234,3.0,5.0,44,0.00,,,0.00,969,Wunderground v.1.15,2013-07-07 21:01:00,
2013-07-07 14:07:00,84.1,58.5,29.80,WNW,286,2.0,5.0,42,0.00,,,0.00,962,Wunderground v.1.15,2013-07-07 21:07:00,
2013-07-07 14:12:00,84.8,59.8,29.80,West,259,1.0,4.0,43,0.00,,,0.00,962,Wunderground v.1.15,2013-07-07 21:12:00,
2013-07-07 14:18:00,85.6,58.5,29.80,NE,40,1.0,4.0,40,0.00,,,0.00,956,Wunderground v.1.15,2013-07-07 21:18:00,
2013-07-07 14:24:00,86.7,56.6,29.80,NNE,19,1.0,4.0,36,0.00,,,0.00,951,Wunderground v.1.15,2013-07-07 21:24:00,
2013-07-07 14:30:00,87.3,59.3,29.80,West,262,1.0,1.0,39,0.00,,,0.00,942,Wunderground v.1.15,2013-07-07 21:30:00,
2013-07-07 14:36:00,87.9,59.1,29.80,NW,324,1.0,4.0,38,0.00,,,0.00,935,Wunderground v.1.15,2013-07-07 21:36:00,
2013-07-07 14:42:00,87.8,60.5,29.80,West,271,3.0,8.0,40,0.00,,,0.00,933,Wunderground v.1.15,2013-07-07 21:42:00,
2013-07-07 14:47:00,86.8,59.6,29.80,NNW,332,3.0,8.0,40,0.00,,,0.00,925,Wunderground v.1.15,2013-07-07 21:47:00,
2013-07-07 14:53:00,86.1,59.6,29.79,NW,318,3.0,4.0,41,0.00,,,0.00,916,Wunderground v.1.15,2013-07-07 21:53:00,
2013-07-07 14:59:00,85.5,59.8,29.80,WNW,296,3.0,6.0,42,0.00,,,0.00,905,Wunderground v.1.15,2013-07-07 21:59:00,
2013-07-07 15:05:00,85.1,60.7,29.79,NW,304,3.0,5.0,44,0.00,,,0.00,896,Wunderground v.1.15,2013-07-07 22:05:00,
2013-07-07 15:10:00,85.5,60.4,29.79,WNW,293,3.0,3.0,43,0.00,,,0.00,888,Wunderground v.1.15,2013-07-07 22:10:00,
2013-07-07 15:16:00,85.6,60.5,29.79,West,267,3.0,4.0,43,0.00,,,0.00,879,Wunderground v.1.15,2013-07-07 22:16:00,
2013-07-07 15:22:00,85.5,59.8,29.79,NNW,333,3.0,10.0,42,0.00,,,0.00,865,Wunderground v.1.15,2013-07-07 22:22:00,
2013-07-07 15:27:00,84.7,59.7,29.79,NNW,333,5.0,12.0,43,0.00,,,0.00,856,Wunderground v.1.15,2013-07-07 22:27:00,
2013-07-07 15:32:00,84.2,59.9,29.79,NNW,344,4.0,5.0,44,0.00,,,0.00,849,Wunderground v.1.15,2013-07-07 22:32:00,
2013-07-07 15:38:00,84.2,59.9,29.79,West,272,4.0,8.0,44,0.00,,,0.00,838,Wunderground v.1.15,2013-07-07 22:38:00,
2013-07-07 15:44:00,84.1,59.8,29.79,WNW,297,4.0,7.0,44,0.00,,,0.00,826,Wunderground v.1.15,2013-07-07 22:44:00,
2013-07-07 15:50:00,83.9,60.3,29.79,WSW,245,3.0,10.0,45,0.00,,,0.00,816,Wunderground v.1.15,2013-07-07 22:50:00,
2013-07-07 15:55:00,84.2,59.9,29.79,NW,319,3.0,10.0,44,0.00,,,0.00,803,Wunderground v.1.15,2013-07-07 22:55:00,
2013-07-07 16:00:00,83.9,59.0,29.78,NNW,348,4.0,4.0,43,0.00,,,0.00,795,Wunderground v.1.15,2013-07-07 23:00:00,
2013-07-07 16:06:00,83.3,59.1,29.79,NW,323,4.0,5.0,44,0.00,,,0.00,777,Wunderground v.1.15,2013-07-07 23:06:00,
2013-07-07 16:12:00,82.4,58.9,29.79,NW,313,5.0,8.0,45,0.00,,,0.00,763,Wunderground v.1.15,2013-07-07 23:12:00,
2013-07-07 16:18:00,81.8,59.0,29.79,NW,316,5.0,8.0,46,0.00,,,0.00,751,Wunderground v.1.15,2013-07-07 23:18:00,
2013-07-07 16:23:00,81.8,59.0,29.79,NW,325,5.0,8.0,46,0.00,,,0.00,733,Wunderground v.1.15,2013-07-07 23:23:00,
2013-07-07 16:29:00,81.5,59.3,29.79,NW,309,4.0,8.0,47,0.00,,,0.00,721,Wunderground v.1.15,2013-07-07 23:29:00,
2013-07-07 16:35:00,81.1,58.4,29.79,NNW,346,5.0,8.0,46,0.00,,,0.00,705,Wunderground v.1.15,2013-07-07 23:35:00,
2013-07-07 16:41:00,80.5,57.8,29.79,NNW,327,6.0,13.0,46,0.00,,,0.00,691,Wunderground v.1.15,2013-07-07 23:41:00,
2013-07-07 16:46:00,80.0,58.0,29.79,NNW,340,5.0,13.0,47,0.00,,,0.00,675,Wunderground v.1.15,2013-07-07 23:46:00,
2013-07-07 16:51:00,79.2,57.8,29.79,NW,315,5.0,6.0,48,0.00,,,0.00,661,Wunderground v.1.15,2013-07-07 23:51:00,
2013-07-07 16:56:00,79.1,57.7,29.79,NW,320,5.0,9.0,48,0.00,,,0.00,649,Wunderground v.1.15,2013-07-07 23:56:00,
2013-07-07 17:02:00,78.7,57.9,29.78,NW,321,6.0,6.0,49,0.00,,,0.00,629,Wunderground v.1.15,2013-07-08 00:02:00,
2013-07-07 17:08:00,78.7,57.9,29.78,NW,316,5.0,6.0,49,0.00,,,0.00,613,Wunderground v.1.15,2013-07-08 00:08:00,
2013-07-07 17:14:00,78.5,57.7,29.78,NNW,337,5.0,8.0,49,0.00,,,0.00,594,Wunderground v.1.15,2013-07-08 00:14:00,
2013-07-07 17:20:00,78.5,58.3,29.78,NNW,333,4.0,4.0,50,0.00,,,0.00,578,Wunderground v.1.15,2013-07-08 00:20:00,
2013-07-07 17:25:00,78.6,57.8,29.78,NW,325,4.0,6.0,49,0.00,,,0.00,563,Wunderground v.1.15,2013-07-08 00:25:00,
2013-07-07 17:30:00,78.3,57.6,29.79,WNW,298,5.0,5.0,49,0.00,,,0.00,547,Wunderground v.1.15,2013-07-08 00:30:00,
2013-07-07 17:36:00,77.8,57.7,29.78,NW,323,5.0,7.0,50,0.00,,,0.00,527,Wunderground v.1.15,2013-07-08 00:36:00,
2013-07-07 17:41:00,77.8,57.7,29.79,WNW,299,4.0,5.0,50,0.00,,,0.00,512,Wunderground v.1.15,2013-07-08 00:41:00,
2013-07-07 17:46:00,77.7,57.6,29.78,NNW,328,4.0,5.0,50,0.00,,,0.00,496,Wunderground v.1.15,2013-07-08 00:46:00,
2013-07-07 17:52:00,77.0,56.9,29.79,NW,312,5.0,6.0,50,0.00,,,0.00,476,Wunderground v.1.15,2013-07-08 00:52:00,
2013-07-07 17:58:00,76.4,56.9,29.79,NW,326,5.0,9.0,51,0.00,,,0.00,457,Wunderground v.1.15,2013-07-08 00:58:00,
2013-07-07 18:04:00,75.5,56.1,29.79,NW,319,6.0,10.0,51,0.00,,,0.00,441,Wunderground v.1.15,2013-07-08 01:04:00,
2013-07-07 18:09:00,75.1,56.3,29.79,NW,304,6.0,10.0,52,0.00,,,0.00,422,Wunderground v.1.15,2013-07-08 01:09:00,
2013-07-07 18:14:00,74.7,56.4,29.79,North,351,5.0,8.0,53,0.00,,,0.00,404,Wunderground v.1.15,2013-07-08 01:14:00,
2013-07-07 18:19:00,74.4,56.7,29.79,WSW,240,5.0,10.0,54,0.00,,,0.00,388,Wunderground v.1.15,2013-07-08 01:19:00,
2013-07-07 18:25:00,74.3,56.6,29.79,West,271,4.0,6.0,54,0.00,,,0.00,369,Wunderground v.1.15,2013-07-08 01:25:00,
2013-07-07 18:30:00,74.4,56.2,29.79,NW,320,3.0,10.0,53,0.00,,,0.00,352,Wunderground v.1.15,2013-07-08 01:30:00,
2013-07-07 18:35:00,74.0,56.3,29.79,West,266,4.0,10.0,54,0.00,,,0.00,336,Wunderground v.1.15,2013-07-08 01:35:00,
2013-07-07 18:40:00,73.6,55.9,29.80,NW,322,5.0,5.0,54,0.00,,,0.00,316,Wunderground v.1.15,2013-07-08 01:40:00,
2013-07-07 18:45:00,73.1,56.0,29.80,NW,318,5.0,8.0,55,0.00,,,0.00,301,Wunderground v.1.15,2013-07-08 01:45:00,
2013-07-07 18:51:00,72.7,56.1,29.80,WNW,303,4.0,7.0,56,0.00,,,0.00,283,Wunderground v.1.15,2013-07-08 01:51:00,
2013-07-07 18:56:00,72.5,55.9,29.80,NW,313,3.0,7.0,56,0.00,,,0.00,258,Wunderground v.1.15,2013-07-08 01:56:00,
2013-07-07 19:01:00,72.2,55.6,29.80,NW,307,3.0,4.0,56,0.00,,,0.00,248,Wunderground v.1.15,2013-07-08 02:01:00,
2013-07-07 19:07:00,72.0,55.9,29.80,West,268,2.0,4.0,57,0.00,,,0.00,229,Wunderground v.1.15,2013-07-08 02:07:00,
2013-07-07 19:12:00,71.5,55.0,29.80,NNW,327,2.0,6.0,56,0.00,,,0.00,209,Wunderground v.1.15,2013-07-08 02:12:00,
2013-07-07 19:18:00,70.4,54.9,29.80,NNW,337,4.0,9.0,58,0.00,,,0.00,186,Wunderground v.1.15,2013-07-08 02:18:00,
2013-07-07 19:24:00,69.8,54.8,29.80,NNW,328,3.0,5.0,59,0.00,,,0.00,163,Wunderground v.1.15,2013-07-08 02:24:00,
2013-07-07 19:30:00,69.3,54.8,29.81,WNW,298,2.0,2.0,60,0.00,,,0.00,141,Wunderground v.1.15,2013-07-08 02:30:00,
2013-07-07 19:35:00,68.8,54.3,29.81,NW,311,3.0,4.0,60,0.00,,,0.00,123,Wunderground v.1.15,2013-07-08 02:35:00,
2013-07-07 19:40:00,68.4,54.4,29.81,WNW,294,3.0,7.0,61,0.00,,,0.00,105,Wunderground v.1.15,2013-07-08 02:40:00,
2013-07-07 19:45:00,67.4,53.9,29.81,NNW,340,4.0,8.0,62,0.00,,,0.00,90,Wunderground v.1.15,2013-07-08 02:45:00,
2013-07-07 19:51:00,66.5,53.9,29.81,NW,311,5.0,5.0,64,0.00,,,0.00,23,Wunderground v.1.15,2013-07-08 02:51:00,
2013-07-07 19:56:00,65.8,53.7,29.81,NNW,336,4.0,5.0,65,0.00,,,0.00,23,Wunderground v.1.15,2013-07-08 02:56:00,
2013-07-07 20:01:00,65.1,53.5,29.81,NW,322,4.0,7.0,66,0.00,,,0.00,19,Wunderground v.1.15,2013-07-08 03:01:00,
2013-07-07 20:07:00,64.5,53.3,29.82,NNW,336,3.0,7.0,67,0.00,,,0.00,19,Wunderground v.1.15,2013-07-08 03:07:00,
2013-07-07 20:12:00,64.1,53.3,29.82,NNW,331,3.0,4.0,68,0.00,,,0.00,16,Wunderground v.1.15,2013-07-08 03:12:00,
2013-07-07 20:18:00,63.7,53.3,29.82,NW,311,3.0,4.0,69,0.00,,,0.00,12,Wunderground v.1.15,2013-07-08 03:18:00,
2013-07-07 20:24:00,63.1,53.2,29.82,NNW,327,3.0,5.0,70,0.00,,,0.00,11,Wunderground v.1.15,2013-07-08 03:24:00,
2013-07-07 20:30:00,62.5,53.0,29.83,NW,325,3.0,4.0,71,0.00,,,0.00,7,Wunderground v.1.15,2013-07-08 03:30:00,
2013-07-07 20:36:00,62.0,52.9,29.83,NNW,342,4.0,5.0,72,0.00,,,0.00,5,Wunderground v.1.15,2013-07-08 03:36:00,
2013-07-07 20:42:00,61.6,52.9,29.83,NW,325,4.0,4.0,73,0.00,,,0.00,0,Wunderground v.1.15,2013-07-08 03:42:00,
2013-07-07 20:48:00,61.2,52.8,29.83,NNW,327,4.0,4.0,74,0.00,,,0.00,0,Wunderground v.1.15,2013-07-08 03:48:00,
2013-07-07 20:54:00,60.8,52.8,29.83,NNW,327,3.0,5.0,75,0.00,,,0.00,0,Wunderground v.1.15,2013-07-08 03:54:00,
2013-07-07 21:00:00,60.4,52.4,29.83,NW,307,3.0,3.0,75,0.00,,,0.00,0,Wunderground v.1.15,2013-07-08 04:00:00,
2013-07-07 21:01:00,60.3,52.7,29.83,NW,310,3.0,4.0,76,0.00,,,0.00,0,Wunderground v.1.15,2013-07-08 04:01:00,
2013-07-07 21:02:00,60.2,52.6,29.83,NW,319,4.0,4.0,76,0.00,,,0.00,0,Wunderground v.1.15,2013-07-08 04:02:00,
2013-07-07 21:03:00,60.2,52.6,29.83,NNW,336,4.0,4.0,76,0.00,,,0.00,0,Wunderground v.1.15,2013-07-08 04:03:00,
2013-07-07 21:05:00,60.0,52.4,29.83,NW,325,4.0,4.0,76,0.00,,,0.00,0,Wunderground v.1.15,2013-07-08 04:05:00,
2013-07-07 21:10:00,59.7,52.5,29.84,NW,321,3.0,3.0,77,0.00,,,0.00,0,Wunderground v.1.15,2013-07-08 04:10:00,
2013-07-07 21:12:00,59.5,52.3,29.83,NNW,341,4.0,5.0,77,0.00,,,0.00,0,Wunderground v.1.15,2013-07-08 04:12:00,
2013-07-07 21:18:00,59.1,52.2,29.84,NW,313,4.0,5.0,78,0.00,,,0.00,0,Wunderground v.1.15,2013-07-08 04:18:00,
2013-07-07 21:23:00,58.8,52.3,29.84,NW,309,3.0,7.0,79,0.00,,,0.00,0,Wunderground v.1.15,2013-07-08 04:23:00,
2013-07-07 21:29:00,58.4,51.9,29.85,NW,312,4.0,7.0,79,0.00,,,0.00,0,Wunderground v.1.15,2013-07-08 04:29:00,
2013-07-07 21:35:00,57.9,51.8,29.85,NW,325,4.0,7.0,80,0.00,,,0.00,0,Wunderground v.1.15,2013-07-08 04:35:00,
2013-07-07 21:40:00,57.6,51.8,29.85,NW,319,4.0,5.0,81,0.00,,,0.00,0,Wunderground v.1.15,2013-07-08 04:40:00,
2013-07-07 21:45:00,57.3,51.5,29.85,NW,316,4.0,5.0,81,0.00,,,0.00,0,Wunderground v.1.15,2013-07-08 04:45:00,
2013-07-07 21:51:00,56.9,51.5,29.85,NW,319,3.0,4.0,82,0.00,,,0.00,0,Wunderground v.1.15,2013-07-08 04:51:00,
2013-07-07 21:57:00,56.6,51.5,29.85,NW,308,3.0,5.0,83,0.00,,,0.00,0,Wunderground v.1.15,2013-07-08 04:57:00,
2013-07-07 22:03:00,56.3,51.2,29.86,NW,316,3.0,4.0,83,0.00,,,0.00,0,Wunderground v.1.15,2013-07-08 05:03:00,
2013-07-07 22:09:00,55.9,51.1,29.86,WNW,297,3.0,8.0,84,0.00,,,0.00,0,Wunderground v.1.15,2013-07-08 05:09:00,
2013-07-07 22:14:00,55.6,50.8,29.86,NW,311,4.0,7.0,84,0.00,,,0.00,0,Wunderground v.1.15,2013-07-08 05:14:00,
2013-07-07 22:19:00,55.4,51.0,29.86,NW,323,4.0,7.0,85,0.00,,,0.00,0,Wunderground v.1.15,2013-07-08 05:19:00,
2013-07-07 22:25:00,55.2,50.8,29.86,NW,310,3.0,5.0,85,0.00,,,0.00,0,Wunderground v.1.15,2013-07-08 05:25:00,
2013-07-07 22:30:00,55.0,50.9,29.86,NW,316,2.0,4.0,86,0.00,,,0.00,0,Wunderground v.1.15,2013-07-08 05:30:00,
2013-07-07 22:35:00,54.9,50.8,29.86,WNW,294,3.0,8.0,86,0.00,,,0.00,0,Wunderground v.1.15,2013-07-08 05:35:00,
2013-07-07 22:41:00,54.6,50.8,29.86,NW,309,3.0,4.0,87,0.00,,,0.00,0,Wunderground v.1.15,2013-07-08 05:41:00,
2013-07-07 22:46:00,54.5,50.7,29.86,NW,312,2.0,4.0,87,0.00,,,0.00,0,Wunderground v.1.15,2013-07-08 05:46:00,
2013-07-07 22:52:00,54.3,50.5,29.86,NW,306,2.0,4.0,87,0.00,,,0.00,0,Wunderground v.1.15,2013-07-08 05:52:00,
2013-07-07 22:57:00,54.2,50.4,29.86,NW,304,3.0,4.0,87,0.00,,,0.00,0,Wunderground v.1.15,2013-07-08 05:57:00,
2013-07-07 23:03:00,54.1,50.6,29.86,NW,316,2.0,4.0,88,0.00,,,0.00,0,Wunderground v.1.15,2013-07-08 06:03:00,
2013-07-07 23:08:00,54.1,50.6,29.86,NW,316,1.0,4.0,88,0.00,,,0.00,0,Wunderground v.1.15,2013-07-08 06:08:00,
2013-07-07 23:14:00,54.0,50.5,29.86,NNW,327,1.0,4.0,88,0.00,,,0.00,0,Wunderground v.1.15,2013-07-08 06:14:00,
2013-07-07 23:20:00,53.9,50.4,29.86,NW,323,2.0,2.0,88,0.00,,,0.00,0,Wunderground v.1.15,2013-07-08 06:20:00,
2013-07-07 23:25:00,53.8,50.6,29.87,NW,312,2.0,4.0,89,0.00,,,0.00,0,Wunderground v.1.15,2013-07-08 06:25:00,
2013-07-07 23:31:00,53.7,50.5,29.87,NW,316,1.0,4.0,89,0.00,,,0.00,0,Wunderground v.1.15,2013-07-08 06:31:00,
2013-07-07 23:36:00,53.7,50.5,29.86,NW,315,1.0,4.0,89,0.00,,,0.00,0,Wunderground v.1.15,2013-07-08 06:36:00,
2013-07-07 23:41:00,53.6,50.4,29.87,NW,304,1.0,4.0,89,0.00,,,0.00,0,Wunderground v.1.15,2013-07-08 06:41:00,
2013-07-07 23:47:00,53.6,50.4,29.87,NW,314,1.0,4.0,89,0.00,,,0.00,0,Wunderground v.1.15,2013-07-08 06:47:00,
2013-07-07 23:52:00,53.5,50.3,29.87,NW,309,1.0,4.0,89,0.00,,,0.00,0,Wunderground v.1.15,2013-07-08 06:52:00,
2013-07-07 23:58:00,53.5,50.3,29.87,NW,309,1.0,4.0,89,0.00,,,0.00,0,Wunderground v.1.15,2013-07-08 06:58:00,